Lawrence, MA

8:12 AM EST on November 13, 2019 (GMT -0500)
Lawrence Municipal

Weather History for KLWM - August, 2019

Change the Weather History Date:

Friday, August 23, 2019

  Actual Average Record
Temperature  
Mean Temperature 70 °F -  
Max Temperature 75 °F 78 °F 95 °F (1976)
Min Temperature 62 °F 56 °F 46 °F (1957)
Cooling Degree Days 4    
Growing Degree Days 20 (Base 50)    
Moisture  
Dew Point 55 °F    
Average Humidity 58    
Maximum Humidity 70    
Minimum Humidity 48    
Precipitation  
Precipitation 0.00 in - - ()
Sea Level Pressure  
Sea Level Pressure 29.97 in    
Wind  
Wind Speed 6 mph (NW)    
Max Wind Speed 8 mph    
Max Gust Speed -    
Visibility 10 miles    
Events      
Averages and records for this station are not official NWS values.
T = Trace of Precipitation, MM = Missing Value Source: NWS Daily Summary

Daily Weather History Graph

Daily Weather History Graph

Search for Another Location

Airport or City:

Astronomy

Aug. 23, 2019 Rise Set
Actual Time 5:59 AM EDT 7:34 PM EDT
Civil Twilight 5:29 AM EDT 8:03 PM EDT
Nautical Twilight 4:53 AM EDT 8:39 PM EDT
Astronomical Twilight 4:14 AM EDT 9:18 PM EDT
Moon 11:48 PM EDT (8/23) 1:43 PM EDT (8/23)
Length of Visible Light 14h 34m
Length of Day
13h 34m
Waning Gibbous, 50% of the Moon is Illuminated
Aug 23
Waning Gibbous
Aug 30
New
Sep 5
First Quarter
Sep 14
Full
Sep 21
Last Quarter

Hourly Weather History & Observations

Time (EDT) Temp. Dew Point Humidity Pressure Visibility Wind Dir Wind Speed Gust Speed Precip Events Conditions
12:54 AM 73.0 °F 57.0 °F 57% 29.91 in 10.0 mi West 5.8 mph - N/A   Overcast
1:54 AM 72.0 °F 57.0 °F 59% 29.90 in 10.0 mi WNW 4.6 mph - 0.00 in   Overcast
2:54 AM 72.0 °F 57.0 °F 59% 29.90 in 10.0 mi WNW 5.8 mph - N/A   Overcast
3:54 AM 71.1 °F 57.9 °F 63% 29.91 in 10.0 mi West 5.8 mph - N/A   Overcast
4:54 AM 70.0 °F 57.9 °F 65% 29.91 in 10.0 mi NW 4.6 mph - 0.00 in   Overcast
5:54 AM 69.1 °F 57.9 °F 68% 29.94 in 10.0 mi WNW 4.6 mph - N/A   Overcast
6:54 AM 68.0 °F 57.9 °F 70% 29.96 in 10.0 mi WNW 3.5 mph - N/A   Overcast
7:54 AM 68.0 °F 57.9 °F 70% 29.97 in 10.0 mi NNW 3.5 mph - N/A   Clear
8:54 AM 69.1 °F 57.0 °F 65% 29.97 in 10.0 mi WNW 5.8 mph - N/A   Partly Cloudy
9:54 AM 71.1 °F 57.0 °F 61% 29.98 in 10.0 mi NW 4.6 mph - N/A   Clear
10:54 AM 73.0 °F 55.9 °F 55% 29.98 in 10.0 mi WNW 8.1 mph - N/A   Clear
11:54 AM 72.0 °F 55.0 °F 55% 29.98 in 10.0 mi WNW 8.1 mph - N/A   Clear
12:54 PM 73.0 °F 57.0 °F 57% 29.97 in 10.0 mi NW 5.8 mph - N/A   Clear
1:54 PM 73.9 °F 54.0 °F 50% 29.97 in 10.0 mi NW 6.9 mph - N/A   Clear
2:54 PM 73.9 °F 55.9 °F 53% 29.96 in 10.0 mi West 8.1 mph - N/A   Clear
3:54 PM 75.0 °F 54.0 °F 48% 29.97 in 10.0 mi NW 8.1 mph - N/A   Partly Cloudy
4:54 PM 73.9 °F 55.0 °F 52% 29.97 in 10.0 mi NNW 4.6 mph - N/A   Clear
5:54 PM 73.0 °F 55.0 °F 53% 29.98 in 10.0 mi NW 8.1 mph - N/A   Clear
6:54 PM 72.0 °F 53.1 °F 51% 29.99 in 10.0 mi NW 4.6 mph - N/A   Clear
7:54 PM 70.0 °F 53.1 °F 55% 30.00 in 10.0 mi NNW 6.9 mph - N/A   Clear
8:54 PM 68.0 °F 51.1 °F 55% 30.03 in 10.0 mi NNW 6.9 mph - N/A   Clear
9:54 PM 64.9 °F 50.0 °F 58% 30.04 in 10.0 mi NNW 4.6 mph - N/A   Clear
11:54 PM 62.1 °F 50.0 °F 65% 30.06 in 10.0 mi NNW 4.6 mph - N/A   Clear